Clearfield, PA

8:27 PM EDT on May 20, 2018 (GMT -0400)
Clearfield-Lawrence

Weather History for KFIG - April, 2013

Change the Weather History Date:

Sunday, April 7, 2013

  Actual Average (WUND) Record (WUND)
Temperature  
Mean Temperature 56 °F -  
Max Temperature 71 °F - - (-1)
Min Temperature 41 °F - - (-1)
Degree Days  
Heating Degree Days 10    
Growing Degree Days 6 (Base 50)    
Moisture  
Dew Point 29 °F    
Average Humidity 39    
Maximum Humidity 59    
Minimum Humidity 29    
Precipitation  
Precipitation 0.00 in - - ()
Sea Level Pressure  
Sea Level Pressure 29.97 in    
Wind  
Wind Speed 6 mph (South)    
Max Wind Speed 18 mph    
Max Gust Speed 29 mph    
Visibility 10 miles    
Events      
Averages and records for this station are not official NWS values.
T = Trace of Precipitation, MM = Missing Value Source: NWS Daily Summary

Daily Weather History Graph

Daily Weather History Graph

Search for Another Location

Airport or City:

Astronomy

Apr. 07, 2013 Rise Set
Actual Time 6:46 AM EDT 7:45 PM EDT
Civil Twilight 6:18 AM EDT 8:13 PM EDT
Nautical Twilight 5:45 AM EDT 8:46 PM EDT
Astronomical Twilight 5:10 AM EDT 9:21 PM EDT
Moon 5:04 AM EDT (4/7) 5:14 PM EDT (4/7)
Length of Visible Light 13h 54m
Length of Day
12h 58m
Waning Crescent, 8% of the Moon is Illuminated
Apr 7
Waning Crescent
Apr 10
New
Apr 18
First Quarter
Apr 25
Full
May 2
Last Quarter

Hourly Weather History & Observations

Time (EDT) Temp. Windchill Dew Point Humidity Pressure Visibility Wind Dir Wind Speed Gust Speed Precip Events Conditions
12:54 AM 45.0 °F - 16.0 °F 31% 30.12 in 10.0 mi Calm Calm - N/A   Partly Cloudy
1:54 AM 45.0 °F 42.6 °F 17.1 °F 33% 30.09 in 10.0 mi SE 4.6 mph - N/A   Mostly Cloudy
2:54 AM 45.0 °F 42.6 °F 18.0 °F 34% 30.07 in 10.0 mi Variable 4.6 mph - N/A   Overcast
3:54 AM 44.1 °F 41.5 °F 19.0 °F 37% 30.06 in 10.0 mi SSE 4.6 mph - N/A   Overcast
4:54 AM 43.0 °F 41.3 °F 19.0 °F 38% 30.04 in 10.0 mi ESE 3.5 mph - N/A   Partly Cloudy
5:54 AM 42.1 °F 40.2 °F 19.9 °F 41% 30.04 in 10.0 mi ESE 3.5 mph - N/A   Clear
6:54 AM 42.1 °F 40.2 °F 21.0 °F 43% 30.03 in 10.0 mi East 3.5 mph - N/A   Clear
7:54 AM 41.0 °F 38.0 °F 24.1 °F 51% 30.02 in 10.0 mi ENE 4.6 mph - N/A   Clear
8:54 AM 46.9 °F - 24.1 °F 41% 30.00 in 10.0 mi Calm Calm - N/A   Partly Cloudy
9:54 AM 54.0 °F - 26.1 °F 34% 29.96 in 10.0 mi Variable 5.8 mph 17.3 mph N/A   Clear
10:54 AM 57.0 °F - 27.0 °F 32% 29.94 in 10.0 mi South 15.0 mph 25.3 mph N/A   Clear
11:54 AM 57.0 °F - 28.0 °F 33% 29.92 in 10.0 mi South 10.4 mph 19.6 mph N/A   Overcast
12:54 PM 62.1 °F - 30.0 °F 30% 29.90 in 10.0 mi South 12.7 mph 16.1 mph N/A   Mostly Cloudy
1:54 PM 60.1 °F - 32.0 °F 35% 29.91 in 10.0 mi South 10.4 mph - 0.00 in   Overcast
2:54 PM 63.0 °F - 36.0 °F 37% 29.89 in 10.0 mi SSW 10.4 mph - N/A   Overcast
3:54 PM 66.0 °F - 36.0 °F 33% 29.87 in 10.0 mi South 8.1 mph 19.6 mph N/A   Scattered Clouds
4:54 PM 70.0 °F - 36.0 °F 29% 29.86 in 10.0 mi WSW 18.4 mph 28.8 mph N/A   Scattered Clouds
5:54 PM 69.1 °F - 37.0 °F 31% 29.88 in 10.0 mi SW 13.8 mph 21.9 mph N/A   Mostly Cloudy
6:54 PM 66.0 °F - 39.0 °F 37% 29.89 in 10.0 mi SW 9.2 mph 19.6 mph N/A   Mostly Cloudy
7:54 PM 64.9 °F - 39.0 °F 39% 29.90 in 10.0 mi SSW 9.2 mph 19.6 mph N/A   Mostly Cloudy
8:54 PM 61.0 °F - 41.0 °F 48% 29.94 in 10.0 mi WSW 4.6 mph - 0.00 in   Mostly Cloudy
9:54 PM 59.0 °F - 41.0 °F 51% 29.96 in 10.0 mi WSW 6.9 mph - N/A   Partly Cloudy
10:54 PM 55.0 °F - 41.0 °F 59% 29.97 in 10.0 mi WSW 3.5 mph - N/A   Clear
11:54 PM 55.0 °F - 39.9 °F 57% 29.99 in 10.0 mi WNW 5.8 mph - N/A   Clear